Regional Weather Roundup
Issued by NWS

Home | Current Version | Previous Version | Text Only | Print | Product List | Glossary On
Versions: 1 2 3 4 5 6 7 8 9 10 11 12 13 14 15 16 17 18 19 20 21 22 23 24 25 26 27 28 29 30 31 32 33 34 35 36 37 38 39 40 41 42 43 44 45 46 47 48 49 50
000
ASUS43 KOAX 311602
RWRNE

WEATHER ROUNDUP FOR NEBRASKA
NATIONAL WEATHER SERVICE OMAHA NE
1100 AM CDT MON AUG 31 2015

NOTES: SATELLITE DATA IS BEING USED TO AUGMENT CLOUD COVER ABOVE
       12000 FEET.
       "FAIR" INDICATES FEW OR NO CLOUDS BELOW 12,000 FEET WITH NO
       SIGNIFICANT WEATHER AND/OR OBSTRUCTIONS TO VISIBILITY.

  * THESE STATIONS DO NOT REPORT WEATHER SUCH AS RAIN...SNOW OR FOG.

NEZ001>004-019>022-054>056-311700-
NEBRASKA PANHANDLE

CITY           SKY/WX    TMP DP  RH WIND       PRES   REMARKS
SCOTTSBLUFF    CLOUDY    76  55  48 CALM      30.01R
ALLIANCE       CLOUDY    76  53  44 N3        30.00R
CHADRON        CLOUDY    76  51  41 NW9       29.98R
KIMBALL        PTSUNNY   77  48  35 NW8       30.05S
SIDNEY         CLOUDY    76  52  43 N12       30.04R
$$

NEZ057>060-069>072-079>082-311700-
SOUTHWEST NEBRASKA

CITY           SKY/WX    TMP DP  RH WIND       PRES   REMARKS
NORTH PLATTE   SUNNY     75  59  57 CALM      29.95R
IMPERIAL       SUNNY     79  53  40 VRB5      29.97R
MCCOOK         SUNNY     75  59  57 W5        29.96R
$$

NEZ005>010-023>029-035>040-094-311700-
NORTH CENTRAL NEBRASKA

CITY           SKY/WX    TMP DP  RH WIND       PRES   REMARKS
VALENTINE      MOSUNNY   86  52  30 NW9G24    29.90R
AINSWORTH      MOSUNNY   80  57  45 SW8       29.92R
BROKEN BOW     SUNNY     77  63  61 SW15G22   29.95R
ORD            SUNNY     76  64  66 S9        29.92S
$$

NEZ041-046>049-061>064-073>077-083>087-311700-
SOUTH CENTRAL NEBRASKA

CITY           SKY/WX    TMP DP  RH WIND       PRES   REMARKS
GRAND ISLAND   SUNNY     76  66  71 S17       29.96S
AURORA         MOSUNNY   74  69  85 S13       29.96S
HASTINGS       MOSUNNY   73  66  78 S13       29.96S
HEBRON         SUNNY     76  68  78 S8        29.97S
HOLDREGE       SUNNY     75  64  67 S13       29.94S
KEARNEY *      SUNNY     75  64  69 S13       29.95R
YORK           MOSUNNY   73  70  88 S13       29.97S
$$

NEZ011>018-030>034-042>045-311700-
NORTHEAST NEBRASKA

CITY           SKY/WX    TMP DP  RH WIND       PRES   REMARKS
NORFOLK        SUNNY     76  67  73 S14G21    29.93S
ALBION         SUNNY     73  66  79 S12       29.95S
BLAIR          SUNNY     76  69  78 S9        29.97S
COLUMBUS *     SUNNY     75  64  69 S8        29.96R
FREMONT        SUNNY     78  70  77 S9        29.97R
TEKAMAH        SUNNY     77  71  82 S8        29.96R
$$

NEZ050>053-065>068-078-088>093-311700-
SOUTHEAST NEBRASKA

CITY           SKY/WX    TMP DP  RH WIND       PRES   REMARKS
LINCOLN        SUNNY     79  70  74 S13       29.97S
OMAHA EPPLEY   MOSUNNY   78  71  79 SE10      29.97R
BEATRICE       SUNNY     78  70  77 S8        29.98S
FALLS CITY     SUNNY     81  72  74 S8        29.98S
NEBRASKA CITY  SUNNY     76  72  88 S8        29.99S
PLATTSMOUTH    SUNNY     76  70  83 S6        29.99R
$$

NEZ044-045-051>053-067-311700-
OMAHA AREA

CITY           SKY/WX    TMP DP  RH WIND       PRES   REMARKS
OMAHA EPPLEY   MOSUNNY   78  71  79 SE10      29.97R
BLAIR          SUNNY     76  69  78 S9        29.97S
FREMONT        SUNNY     78  70  77 S9        29.97R
OFFUTT AFB     SUNNY     76  76 100 SE8       29.97S
PLATTSMOUTH    SUNNY     76  70  83 S6        29.99R
WAHOO          FAIR      78  72  81 S10       29.97R
$$




USA.gov is the U.S. government's official web portal to all federal, state and local government web resources and services.